sat.trackr.live / text

‹ back to catalog

TIANHUI 4B

NORAD 50573 · 2021-134B

PAYLOAD ACTIVE UNKNOWN

§ Identity

Operator
Country
PRC
Launch date
2021-12-29
Launch site
JSC
Launch vehicle
Mass (kg)
RCS (m²)

External: N2YO · Heavens-Above · Gunter

§ Orbital elements

Epoch: 2026-05-25T04:31:25.352832Z

Period
93.14 min
Inclination
88.9705°
Eccentricity
0.0008953
Mean motion
15.46140721 rev/d
Perigee alt
421.9 km
Apogee alt
434.1 km
Semi-major
6,806.2 km
B*
1.0567e-4
RAAN
325.9841°
Arg perigee
146.1092°
Mean anomaly
214.0742°
Rev number
24,628

§ Raw data

TIANHUI 4B1 50573U 21134B   26145.18848788  .00005216  00000+0  10567-3 0  99962 50573  88.9705 325.9841 0008953 146.1092 214.0742 15.46140721246282

JSON: /api/v1/satellites/50573 · /tle

For live sub-satellite position, see the globe view (requires WebGL).

§ Visibility from observer

Set your observer location to see the next 7 days of passes ≥ 10°. The values pass through the URL so the page stays shareable.

No JS? Fill the form by hand. The geolocation button needs JavaScript.